Find Starlink 30702

NORAD ID: 57955 Int'l Des: 2023-148 Owner: SPXS Country: US Constellation: starlink operational
LEOCIRCULAR

Current View

Loading 3D Globe...

About Starlink 30702

Starlink 30702 (NORAD 57955) is a starlink constellation satellite (v2 mini) launched Sep 25, 2023 by SPXS of US. It operates in LEO, CIRCULAR orbit with a mass of 730.00 kg.

About Starlink 30702

Description loading...

Upcoming Passes

Passes for default location (London). Set your location on the main map for personalized predictions.

Altitude History

Loading altitude history...

Two-Line Element Set

1 57955U 23148W 26175.87277679 .00001067 00000-0 42707-4 0 9991
2 57955 53.1601 235.5613 0001197 95.4202 264.6937 15.34393149154980
Epoch: Jun 24, 2026 • Age: 14 hours

Current Status

Altitude 480.8 km
Velocity 7.62 km/s
Sub-Earth Point -50.12°S, 95.73°E
Launch Date Sep 25, 2023
Age 2.7 years
Type internet

Technical Details

Classification Payload
Mass 730.00 kg
Dry Mass 700.00 kg
Total Mass 730.00 kg
Length 0.30 m
Diameter 4.10 m
Span 29.00 m
Shape Box + pan
Manufacturer SPXS
Bus Type Starlink V2M
Phase Status In Orbit
Owner/State SPXS/US

Most Searched